Total_Precipitation_Accumulation
0.35 0.04 0.04 0.09 0.51 0.56 1.85 1.69 2.92 1.69 2.02 2.12 2.29 1.95 2.65 0.70 0.85 1.77 1.19 0.47 1.04 0.59 1.03 0.47 0.14 0.35 1.28 0.65 0.32 0.40 0.23 1.28 0.25 2.16 1.37 0.87 0.64 0.65 0.60 0.73 0.71 0.68 0.48 0.46 0.72 0.92 1.24 0.67 1.02 1.07 1.16 0.82 0.77 0.93 0.69 0.65 0.80 0.69 0.75 0.50 0.31 0.27 0.28 0.12 0.08 0.09 0.07 0.09 0.10 0.05 0.09 0.11 0.18 0.20 0.20 0.12 0.20 0.16 0.34 0.27 0.30 0.33 0.40 0.35 0.57 0.49 0.43 0.47 0.59 0.48 0.38 0.31 0.35 0.35 0.34 0.17 0.17
0.08 0.02 0.07 0.26 0.70 2.35 2.26 0.94 2.47 2.03 1.60 2.56 2.12 1.64 1.69 1.39 1.68 1.16 1.05 1.75 0.75 0.53 0.23 0.34 0.19 0.85 0.39 0.07 0.10 0.12 0.14 0.20 0.10 0.19 0.31 0.44 0.61 0.66 0.42 0.50 0.34 0.47 0.35 0.34 0.32 0.72 0.65 0.84 0.81 0.89 0.75 0.61 0.54 0.52 0.63 0.83 0.56 0.65 0.43 0.26 0.28 0.22 0.12 0.08 0.07 0.12 0.08 0.12 0.18 0.18 0.14 0.16 0.22 0.21 0.14 0.17 0.22 0.32 0.47 0.34 0.24 0.25 0.35 0.31 0.40 0.41 0.43 0.42 0.49 0.42 0.33 0.31 0.49 0.55 0.36 0.29 0.20
0.05 0.09 0.20 0.55 0.46 1.21 1.91 1.47 2.71 2.39 2.48 2.30 1.65 2.05 1.31 1.42 1.67 1.51 1.29 0.86 0.41 0.16 0.24 0.23 0.22 0.60 0.34 0.13 0.19 0.29 0.37 0.23 0.08 0.10 0.52 0.55 0.74 0.94 0.43 0.26 0.35 0.29 0.34 0.33 0.34 0.48 0.52 0.63 0.40 0.77 0.71 0.69 0.39 0.45 0.56 0.47 0.30 0.35 0.46 0.21 0.29 0.14 0.12 0.06 0.07 0.13 0.13 0.19 0.20 0.12 0.11 0.17 0.24 0.27 0.22 0.25 0.26 0.33 0.50 0.50 0.70 0.47 0.31 0.38 0.42 0.32 0.27 0.37 0.33 0.33 0.24 0.39 0.56 0.47 0.29 0.26 0.15
0.13 0.20 0.61 0.57 2.91 1.02 1.82 2.31 1.58 3.07 2.90 1.37 1.85 1.23 1.69 1.37 1.09 1.37 0.69 0.53 0.43 0.12 0.18 0.22 0.64 0.14 0.45 0.11 0.15 0.07 0.13 0.36 0.17 0.07 0.69 0.67 0.35 0.42 0.36 0.37 0.22 0.21 0.28 0.34 0.43 0.41 0.47 0.44 0.27 0.35 0.51 0.43 0.29 0.39 0.31 0.32 0.27 0.20 0.24 0.15 0.15 0.16 0.09 0.12 0.07 0.17 0.18 0.16 0.09 0.13 0.20 0.21 0.14 0.31 0.32 0.40 0.36 0.45 0.53 0.30 0.56 0.47 0.42 0.38 0.44 0.30 0.31 0.45 0.45 0.42 0.36 0.47 0.48 0.38 0.32 0.21 0.23
0.21 0.55 0.38 0.90 2.42 3.23 2.16 2.49 2.23 2.78 2.48 1.49 2.38 1.39 0.81 0.82 0.99 0.52 0.61 0.57 0.21 0.69 0.12 0.33 0.23 0.38 0.62 0.23 0.19 0.53 0.23 0.14 0.15 0.08 0.19 0.27 0.12 0.21 0.22 0.24 0.29 0.25 0.26 0.28 0.30 0.34 0.33 0.25 0.26 0.26 0.34 0.29 0.21 0.23 0.22 0.20 0.15 0.15 0.20 0.15 0.16 0.12 0.14 0.16 0.16 0.20 0.15 0.20 0.18 0.23 0.16 0.25 0.24 0.32 0.34 0.38 0.43 0.34 0.52 0.65 0.61 0.48 0.45 0.45 0.44 0.34 0.28 0.35 0.41 0.37 0.34 0.57 0.54 0.39 0.34 0.23 0.30
0.22 0.31 0.51 1.47 4.54 2.69 1.95 1.99 2.75 2.19 2.21 1.01 1.47 1.48 0.98 1.22 1.26 0.56 0.36 0.45 0.71 0.55 0.36 0.52 0.19 0.24 0.16 0.04 0.06 0.09 0.07 0.38 0.18 0.12 0.21 0.25 0.17 0.23 0.21 0.20 0.27 0.27 0.28 0.47 0.37 0.29 0.49 0.16 0.30 0.26 0.19 0.25 0.15 0.14 0.14 0.15 0.10 0.14 0.16 0.11 0.09 0.14 0.19 0.34 0.21 0.28 0.24 0.33 0.14 0.24 0.27 0.31 0.15 0.33 0.24 0.39 0.43 0.34 0.54 0.53 0.49 0.44 0.29 0.35 0.39 0.27 0.29 0.30 0.46 0.41 0.33 0.48 0.36 0.39 0.32 0.29 0.29
0.40 0.68 1.33 1.63 1.29 1.66 2.84 2.25 1.76 1.71 1.62 1.19 0.93 1.39 1.28 0.77 0.60 0.47 0.40 0.47 0.70 0.53 0.32 0.46 0.03 0.05 0.29 0.11 0.06 0.06 0.05 0.04 0.15 0.11 0.04 0.12 0.15 0.14 0.14 0.23 0.27 0.32 0.34 0.35 0.32 0.26 0.35 0.13 0.21 0.22 0.25 0.18 0.16 0.15 0.13 0.14 0.09 0.09 0.12 0.13 0.10 0.20 0.22 0.29 0.27 0.30 0.29 0.19 0.29 0.32 0.33 0.24 0.31 0.36 0.35 0.32 0.21 0.52 0.42 0.34 0.27 0.37 0.32 0.35 0.40 0.36 0.22 0.24 0.25 0.34 0.31 0.39 0.46 0.25 0.29 0.37 0.36
0.10 1.63 2.09 1.90 2.37 1.90 1.92 1.53 1.78 1.43 1.26 1.78 1.50 1.22 1.01 0.77 0.46 0.81 0.23 0.32 0.46 0.50 0.22 0.09 0.16 0.18 0.21 0.03 0.42 0.19 0.06 0.03 0.04 0.01 0.04 0.05 0.09 0.17 0.19 0.20 0.34 0.30 0.33 0.25 0.28 0.32 0.27 0.16 0.18 0.23 0.22 0.16 0.14 0.12 0.20 0.12 0.09 0.12 0.11 0.12 0.29 0.33 0.41 0.36 0.25 0.26 0.39 0.32 0.31 0.31 0.32 0.28 0.33 0.32 0.37 0.37 0.33 0.38 0.30 0.35 0.38 0.31 0.20 0.20 0.33 0.30 0.25 0.22 0.11 0.34 0.36 0.47 0.31 0.33 0.40 0.48 0.23
0.17 1.12 1.70 1.40 2.22 1.63 1.72 2.34 2.07 1.68 1.55 1.50 1.52 1.17 0.94 0.72 0.37 0.63 0.48 0.21 0.25 0.15 0.08 0.12 0.09 0.27 0.45 0.19 0.31 0.21 0.13 0.06 0.01 0.02 0.02 0.06 0.14 0.17 0.14 0.18 0.21 0.32 0.26 0.21 0.23 0.29 0.42 0.10 0.16 0.13 0.15 0.13 0.15 0.18 0.19 0.12 0.10 0.13 0.17 0.20 0.28 0.19 0.34 0.35 0.30 0.26 0.45 0.38 0.44 0.42 0.45 0.40 0.29 0.29 0.42 0.31 0.31 0.29 0.37 0.43 0.39 0.36 0.16 0.23 0.20 0.36 0.18 0.17 0.12 0.11 0.22 0.35 0.23 0.27 0.27 0.34 0.17
0.97 0.83 3.49 2.05 1.56 2.24 1.58 1.05 2.06 1.99 1.78 1.42 1.63 1.38 1.24 0.78 0.52 1.18 0.46 0.14 0.46 0.11 0.17 0.09 0.06 0.45 0.16 0.28 0.19 0.20 0.15 0.03 0.01 0.03 0.06 0.05 0.06 0.09 0.10 0.15 0.13 0.13 0.20 0.23 0.19 0.30 0.25 0.27 0.14 0.12 0.18 0.15 0.17 0.15 0.15 0.25 0.18 0.16 0.32 0.23 0.24 0.33 0.32 0.34 0.33 0.43 0.38 0.36 0.46 0.32 0.39 0.41 0.29 0.29 0.26 0.22 0.26 0.29 0.48 0.42 0.37 0.24 0.19 0.15 0.16 0.21 0.18 0.14 0.15 0.07 0.16 0.16 0.20 0.33 0.32 0.19 0.21
1.75 1.04 0.91 2.73 2.00 2.08 1.73 1.17 0.87 1.89 1.76 1.49 1.05 0.94 0.70 0.87 0.76 0.60 0.60 0.36 0.04 0.12 0.09 0.07 0.18 0.12 0.09 0.27 0.31 0.16 0.04 0.02 0.01 0.06 0.07 0.04 0.05 0.10 0.11 0.19 0.12 0.10 0.17 0.27 0.14 0.29 0.36 0.34 0.20 0.15 0.15 0.17 0.17 0.18 0.32 0.49 0.23 0.22 0.22 0.12 0.25 0.27 0.32 0.38 0.36 0.32 0.41 0.32 0.42 0.45 0.47 0.44 0.30 0.31 0.28 0.25 0.23 0.24 0.34 0.44 0.35 0.33 0.38 0.23 0.13 0.14 0.08 0.09 0.10 0.16 0.19 0.27 0.31 0.39 0.33 0.21 0.22
1.84 1.35 2.05 2.13 2.08 2.23 1.52 1.97 1.27 1.61 1.42 1.40 1.33 1.31 0.85 0.44 0.55 0.62 0.68 0.16 0.11 0.03 0.08 0.08 0.22 0.07 0.12 0.15 0.34 0.34 0.08 0.04 0.04 0.02 0.06 0.04 0.07 0.07 0.12 0.10 0.11 0.16 0.13 0.23 0.18 0.19 0.25 0.31 0.48 0.40 0.10 0.11 0.19 0.24 0.27 0.30 0.27 0.34 0.22 0.24 0.29 0.28 0.48 0.42 0.39 0.33 0.27 0.31 0.46 0.37 0.61 0.50 0.38 0.31 0.33 0.37 0.26 0.24 0.45 0.34 0.28 0.31 0.62 0.26 0.16 0.12 0.13 0.18 0.22 0.15 0.20 0.38 0.29 0.20 0.24 0.20 0.28
1.24 1.76 2.21 2.02 1.72 2.03 1.49 1.24 2.51 1.29 1.29 1.51 1.09 0.91 0.92 0.93 0.88 0.47 0.61 0.24 0.09 0.04 0.05 0.23 0.02 0.03 0.07 0.14 0.27 0.17 0.13 0.07 0.03 0.01 0.03 0.04 0.04 0.08 0.07 0.09 0.10 0.08 0.12 0.10 0.20 0.24 0.24 0.20 0.33 0.42 0.29 0.13 0.29 0.34 0.30 0.33 0.42 0.45 0.23 0.23 0.28 0.32 0.31 0.39 0.25 0.31 0.23 0.30 0.41 0.58 0.45 0.62 0.48 0.36 0.41 0.33 0.46 0.38 0.39 0.36 0.52 0.52 0.42 0.46 0.20 0.16 0.17 0.19 0.23 0.24 0.18 0.22 0.23 0.22 0.17 0.17 0.22
0.96 1.79 2.16 2.04 1.08 1.79 2.15 1.33 1.40 1.24 2.30 0.95 1.48 0.99 0.66 0.78 0.55 0.33 0.41 0.22 0.09 0.17 0.04 0.09 0.03 0.04 0.24 0.05 0.68 0.27 0.10 0.05 0.02 0.03 0.03 0.05 0.04 0.06 0.05 0.07 0.09 0.10 0.12 0.15 0.17 0.16 0.27 0.24 0.31 0.33 0.44 0.54 0.62 0.52 0.42 0.39 0.29 0.44 0.21 0.16 0.30 0.45 0.46 0.38 0.26 0.24 0.20 0.33 0.54 0.39 0.52 0.39 0.54 0.68 0.56 0.62 0.66 0.31 0.35 0.39 0.48 0.53 0.39 0.52 0.29 0.25 0.21 0.17 0.18 0.22 0.14 0.13 0.28 0.28 0.29 0.24 0.29
0.68 0.95 1.81 1.24 1.38 1.11 1.08 1.58 1.29 0.98 2.02 1.00 1.17 1.43 0.76 0.48 0.75 0.72 0.60 0.42 0.38 0.12 0.03 0.02 0.04 0.06 0.19 0.03 0.16 0.08 0.04 0.05 0.02 0.02 0.04 0.04 0.04 0.05 0.05 0.09 0.10 0.11 0.12 0.19 0.16 0.26 0.27 0.17 0.34 0.36 0.35 0.46 0.45 0.47 0.46 0.50 0.52 0.49 0.47 0.34 0.39 0.35 0.34 0.35 0.25 0.15 0.16 0.24 0.38 0.62 0.44 0.45 0.68 0.70 0.55 0.69 0.59 0.44 0.21 0.26 0.32 0.30 0.43 0.42 0.29 0.25 0.15 0.22 0.21 0.31 0.14 0.14 0.23 0.23 0.28 0.25 0.15
0.37 1.04 1.63 1.09 1.70 1.05 0.58 1.10 0.29 1.04 1.01 0.91 0.79 0.83 0.83 0.62 0.62 0.81 0.60 0.95 0.59 0.02 0.01 0.13 0.01 0.14 0.07 0.03 0.01 0.01 0.00 0.02 0.02 0.03 0.04 0.07 0.08 0.08 0.09 0.11 0.18 0.22 0.16 0.20 0.22 0.21 0.21 0.15 0.26 0.29 0.40 0.34 0.55 0.49 0.60 0.65 0.35 0.29 0.19 0.28 0.31 0.43 0.18 0.19 0.18 0.17 0.18 0.18 0.28 0.46 0.40 0.73 0.84 0.72 0.68 0.88 0.86 0.53 0.43 0.54 0.44 0.34 0.39 0.35 0.33 0.29 0.29 0.29 0.30 0.27 0.20 0.19 0.23 0.21 0.14 0.18 0.15
0.52 0.76 1.55 1.24 1.60 1.21 0.49 0.74 0.81 1.90 0.76 0.75 0.73 0.61 0.24 0.46 0.60 0.70 0.64 0.54 0.25 0.11 0.05 0.00 0.10 0.01 0.00 0.01 0.01 0.00 0.01 0.01 0.01 0.02 0.05 0.14 0.13 0.24 0.28 0.25 0.26 0.31 0.33 0.31 0.24 0.22 0.25 0.18 0.18 0.25 0.25 0.29 0.26 0.32 0.44 0.59 0.34 0.36 0.28 0.26 0.43 0.20 0.17 0.14 0.07 0.11 0.17 0.17 0.30 0.45 0.46 0.42 0.54 0.61 0.45 0.60 0.41 0.50 0.40 0.29 0.27 0.21 0.26 0.22 0.30 0.20 0.29 0.35 0.31 0.55 0.32 0.39 0.45 0.31 0.25 0.17 0.16
0.52 0.82 1.01 1.44 1.39 1.44 0.58 0.98 0.83 0.31 1.24 0.47 0.62 0.65 0.63 0.49 0.34 0.52 0.29 0.53 0.62 0.38 0.08 0.04 0.01 0.00 0.00 0.00 0.00 0.00 0.01 0.01 0.03 0.04 0.07 0.12 0.12 0.18 0.24 0.25 0.22 0.29 0.25 0.35 0.33 0.22 0.19 0.20 0.22 0.21 0.31 0.27 0.27 0.37 0.48 0.38 0.42 0.44 0.42 0.33 0.46 0.32 0.22 0.29 0.23 0.28 0.44 0.39 0.35 0.39 0.43 0.65 0.76 0.57 0.64 0.54 0.73 0.40 0.38 0.43 0.29 0.13 0.20 0.25 0.29 0.30 0.25 0.33 0.55 0.45 0.41 0.29 0.31 0.30 0.17 0.26 0.37
1.30 0.32 1.12 2.32 1.16 0.63 0.48 0.59 0.45 1.01 0.96 0.73 1.01 0.63 0.58 0.33 0.74 0.43 0.51 0.23 0.50 0.38 0.23 0.02 0.01 0.00 0.00 0.00 0.00 0.01 0.01 0.02 0.02 0.02 0.04 0.03 0.05 0.05 0.08 0.13 0.12 0.18 0.22 0.24 0.35 0.22 0.16 0.16 0.13 0.17 0.16 0.28 0.28 0.32 0.35 0.28 0.35 0.30 0.35 0.33 0.37 0.42 0.33 0.25 0.26 0.42 0.42 0.56 0.54 0.63 0.92 0.81 0.42 0.54 0.73 0.63 0.37 0.21 0.21 0.18 0.26 0.16 0.11 0.12 0.20 0.31 0.34 0.47 0.64 0.50 0.72 0.35 0.22 0.22 0.30 0.22 0.44
0.43 0.85 1.17 1.53 0.98 0.70 0.33 0.36 0.44 0.43 0.30 0.71 0.69 0.37 0.83 0.54 0.16 0.11 0.66 0.38 0.24 0.26 0.04 0.04 0.01 0.01 0.00 0.01 0.00 0.01 0.01 0.01 0.01 0.01 0.01 0.02 0.02 0.04 0.07 0.07 0.09 0.06 0.10 0.12 0.16 0.20 0.17 0.14 0.11 0.09 0.14 0.19 0.16 0.29 0.27 0.42 0.34 0.68 0.28 0.22 0.42 0.24 0.24 0.29 0.42 0.58 0.49 0.70 0.72 0.70 0.53 0.79 0.51 0.52 0.30 0.36 0.22 0.17 0.22 0.12 0.21 0.20 0.21 0.16 0.17 0.20 0.14 0.10 0.30 0.31 0.65 0.51 0.52 0.51 0.56 0.65 0.56
0.34 0.41 0.63 1.21 0.35 0.54 0.30 0.62 0.26 0.60 0.27 0.56 0.50 0.47 0.44 0.43 0.15 0.71 0.40 0.16 0.38 0.08 0.06 0.03 0.01 0.01 0.01 0.00 0.00 0.01 0.01 0.01 0.03 0.01 0.01 0.02 0.02 0.01 0.05 0.03 0.08 0.05 0.05 0.08 0.14 0.12 0.14 0.17 0.21 0.20 0.16 0.16 0.25 0.29 0.35 0.36 0.36 0.27 0.26 0.26 0.57 0.33 0.25 0.18 0.34 0.37 0.43 0.49 0.61 0.55 0.60 0.51 0.38 0.36 0.43 0.47 0.49 0.36 0.32 0.31 0.33 0.43 0.35 0.46 0.17 0.36 0.38 0.29 0.48 0.65 1.45 1.22 0.71 0.67 0.54 0.50 0.63
0.04 0.40 0.05 0.41 0.38 0.30 0.25 0.35 0.15 0.28 0.22 0.41 0.39 0.43 0.56 0.09 0.21 0.69 0.80 0.90 0.39 0.12 0.04 0.01 0.00 0.00 0.00 0.00 0.00 0.00 0.00 0.01 0.01 0.02 0.00 0.00 0.01 0.01 0.03 0.01 0.03 0.03 0.04 0.09 0.10 0.10 0.11 0.13 0.13 0.16 0.14 0.18 0.18 0.16 0.24 0.15 0.16 0.27 0.29 0.20 0.23 0.23 0.33 0.19 0.32 0.34 0.43 0.86 0.98 0.38 0.37 0.69 0.64 0.78 0.31 0.24 0.23 0.23 0.25 0.55 0.37 0.28 0.30 0.37 0.39 0.59 0.34 0.33 0.44 0.36 0.77 0.80 1.07 0.68 0.52 0.60 0.48
0.49 0.04 0.01 0.02 0.10 0.52 0.29 0.33 0.16 0.33 0.22 0.44 0.30 0.56 0.69 0.32 0.16 0.21 0.71 1.32 0.54 0.13 0.02 0.00 0.00 0.00 0.00 0.00 0.00 0.01 0.00 0.00 0.00 0.00 0.01 0.00 0.01 0.00 0.01 0.04 0.05 0.02 0.02 0.04 0.04 0.10 0.11 0.17 0.11 0.11 0.16 0.14 0.15 0.15 0.11 0.21 0.35 0.14 0.16 0.35 0.28 0.40 0.22 0.28 0.38 0.72 0.79 0.60 0.59 0.63 0.74 0.86 0.70 0.36 0.34 0.33 0.32 0.48 0.56 0.49 0.29 0.40 0.35 0.41 0.33 0.31 0.27 0.49 0.49 0.63 0.52 0.89 0.68 0.52 0.73 0.83 0.60
0.04 0.09 0.00 0.05 0.01 0.05 0.21 0.22 0.31 0.77 0.34 0.57 0.52 0.37 0.66 0.18 0.61 0.52 1.02 0.35 0.24 0.30 0.03 0.00 0.00 0.00 0.00 0.00 0.00 0.00 0.00 0.00 0.00 0.01 0.00 0.01 0.00 0.00 0.00 0.03 0.01 0.01 0.01 0.02 0.04 0.06 0.09 0.12 0.08 0.09 0.12 0.13 0.13 0.12 0.13 0.17 0.21 0.21 0.15 0.41 0.41 0.21 0.43 0.23 0.49 0.66 0.63 0.89 0.77 0.80 0.73 0.72 0.58 0.57 0.33 0.30 0.47 0.43 0.26 0.37 0.45 0.50 0.46 0.53 0.38 0.28 0.37 0.36 0.43 0.59 0.36 0.91 0.72 0.58 0.35 0.69 0.77
0.12 0.07 0.00 0.00 0.02 0.03 0.02 0.00 0.20 0.28 0.18 0.13 0.18 0.36 0.52 0.57 0.68 0.33 0.52 0.12 0.21 0.15 0.06 0.01 0.00 0.00 0.00 0.00 0.00 0.00 0.00 0.01 0.00 0.00 0.00 0.00 0.01 0.00 0.02 0.00 0.00 0.01 0.00 0.02 0.02 0.04 0.05 0.06 0.12 0.08 0.09 0.08 0.08 0.10 0.10 0.09 0.11 0.23 0.12 0.21 0.28 0.46 0.46 0.55 0.57 0.59 0.60 0.75 0.68 1.17 0.46 0.65 0.44 0.66 0.44 0.23 0.48 0.99 0.99 0.83 0.65 0.57 0.18 0.29 0.48 0.76 0.53 0.51 0.75 0.71 0.81 0.92 0.95 0.66 0.63 0.43 0.20
0.00 0.08 0.01 0.00 0.00 0.00 0.07 0.02 0.19 0.12 0.17 0.23 0.20 0.44 0.85 0.87 0.26 0.46 0.18 0.19 0.12 0.15 0.01 0.01 0.00 0.00 0.00 0.00 0.00 0.00 0.00 0.00 0.00 0.00 0.01 0.00 0.00 0.01 0.01 0.00 0.00 0.00 0.00 0.01 0.01 0.03 0.05 0.04 0.05 0.08 0.06 0.07 0.07 0.09 0.07 0.09 0.06 0.08 0.07 0.07 0.16 0.24 0.41 0.46 0.62 0.65 0.57 0.39 0.76 0.80 0.59 0.68 0.49 0.75 0.30 0.65 0.55 0.86 0.72 0.35 0.38 0.26 0.19 0.31 0.22 0.61 0.38 0.49 0.80 0.69 1.09 0.87 0.66 0.51 0.43 0.42 0.51
0.00 0.00 0.00 0.00 0.00 0.00 0.02 0.02 0.04 0.48 0.58 0.64 0.34 0.28 0.45 0.36 0.29 0.91 0.12 0.04 0.04 0.21 0.07 0.02 0.00 0.00 0.00 0.00 0.00 0.00 0.00 0.00 0.00 0.00 0.00 0.00 0.00 0.00 0.00 0.00 0.00 0.00 0.00 0.01 0.02 0.05 0.06 0.04 0.06 0.05 0.05 0.04 0.05 0.08 0.04 0.06 0.05 0.06 0.06 0.13 0.12 0.18 0.26 0.35 0.41 0.40 0.33 0.37 0.64 0.63 0.69 0.86 0.65 0.41 0.32 0.45 0.78 0.94 0.46 0.22 0.49 0.39 0.22 0.33 0.42 0.32 0.23 0.42 0.66 0.41 0.38 0.38 0.54 0.50 0.38 0.16 0.27
0.00 0.02 0.00 0.00 0.00 0.02 0.01 0.09 0.04 0.39 1.06 0.81 0.32 0.94 0.51 0.25 0.31 0.46 0.05 0.03 0.04 0.08 0.04 0.02 0.00 0.00 0.00 0.00 0.00 0.00 0.00 0.00 0.00 0.00 0.00 0.00 0.00 0.01 0.00 0.01 0.00 0.00 0.00 0.00 0.02 0.01 0.02 0.03 0.06 0.04 0.05 0.05 0.04 0.04 0.03 0.04 0.04 0.05 0.07 0.05 0.05 0.04 0.17 0.26 0.31 0.20 0.15 0.30 0.45 0.40 0.33 0.39 0.76 0.58 0.36 0.77 0.80 0.51 0.41 0.45 0.34 0.27 0.21 0.24 0.29 0.30 0.30 0.14 0.36 0.30 0.32 0.60 0.68 0.42 0.47 0.52 0.38
0.00 0.00 0.00 0.00 0.00 0.06 0.03 0.15 0.12 0.46 0.90 0.72 0.89 0.58 0.71 0.34 0.73 0.06 0.12 0.05 0.07 0.04 0.01 0.00 0.00 0.00 0.00 0.00 0.00 0.00 0.00 0.00 0.00 0.00 0.00 0.00 0.00 0.00 0.00 0.00 0.01 0.00 0.00 0.03 0.00 0.00 0.01 0.01 0.02 0.02 0.03 0.04 0.04 0.04 0.04 0.02 0.04 0.03 0.03 0.03 0.04 0.06 0.04 0.03 0.22 0.08 0.10 0.21 0.25 0.10 0.20 0.32 0.53 0.25 0.35 0.27 0.50 0.15 0.18 0.30 0.19 0.28 0.31 0.33 0.38 0.44 0.29 0.32 0.37 0.39 0.47 0.61 0.58 0.39 0.30 0.37 0.48
0.00 0.00 0.02 0.00 0.00 0.06 0.05 0.19 0.24 0.64 0.59 0.72 0.50 0.94 0.71 0.58 0.33 0.19 0.14 0.05 0.11 0.06 0.02 0.03 0.01 0.00 0.00 0.00 0.00 0.00 0.00 0.00 0.00 0.00 0.00 0.00 0.00 0.00 0.01 0.01 0.00 0.01 0.00 0.02 0.00 0.01 0.01 0.03 0.02 0.04 0.03 0.03 0.02 0.03 0.02 0.02 0.02 0.02 0.01 0.02 0.02 0.03 0.05 0.04 0.04 0.04 0.05 0.05 0.04 0.09 0.09 0.10 0.16 0.17 0.18 0.19 0.15 0.21 0.12 0.25 0.35 0.26 0.43 0.57 0.34 0.85 0.61 0.59 0.41 0.69 0.49 0.60 0.41 0.48 0.45 0.29 0.25
0.00 0.00 0.01 0.00 0.00 0.20 0.06 0.11 0.16 0.66 0.50 0.69 0.33 1.10 0.53 0.92 0.43 0.20 0.10 0.09 0.04 0.08 0.04 0.03 0.03 0.01 0.01 0.00 0.01 0.01 0.00 0.00 0.00 0.00 0.00 0.00 0.00 0.00 0.02 0.00 0.01 0.01 0.00 0.01 0.00 0.00 0.01 0.01 0.02 0.02 0.02 0.03 0.03 0.03 0.02 0.02 0.02 0.03 0.01 0.02 0.02 0.03 0.04 0.06 0.02 0.02 0.03 0.02 0.02 0.12 0.16 0.04 0.13 0.26 0.21 0.22 0.09 0.20 0.17 0.21 0.47 0.29 0.42 0.39 0.30 0.37 0.54 0.40 0.44 0.69 0.93 0.60 0.59 0.26 0.23 0.20 0.20
0.00 0.00 0.00 0.01 0.00 0.14 0.12 0.04 0.14 0.66 0.29 0.25 0.11 0.73 0.68 0.42 0.61 0.43 0.26 0.08 0.05 0.26 0.13 0.10 0.01 0.01 0.01 0.02 0.02 0.03 0.03 0.00 0.00 0.00 0.00 0.00 0.00 0.00 0.01 0.00 0.00 0.00 0.00 0.02 0.02 0.01 0.00 0.04 0.04 0.01 0.01 0.01 0.03 0.01 0.01 0.01 0.03 0.04 0.01 0.01 0.01 0.02 0.01 0.02 0.05 0.04 0.07 0.04 0.05 0.12 0.13 0.08 0.09 0.29 0.24 0.20 0.23 0.24 0.35 0.27 0.54 0.58 0.26 0.26 0.29 0.28 0.30 0.36 0.30 0.37 0.48 0.59 0.34 0.17 0.13 0.08 0.02
0.00 0.00 0.02 0.01 0.01 0.09 0.05 0.03 0.05 0.43 0.11 0.44 0.57 1.08 0.35 0.61 0.26 0.49 0.19 0.16 0.05 0.09 0.19 0.08 0.03 0.01 0.00 0.00 0.03 0.03 0.02 0.02 0.00 0.00 0.00 0.02 0.00 0.00 0.02 0.00 0.00 0.00 0.03 0.02 0.02 0.01 0.01 0.01 0.02 0.01 0.01 0.00 0.03 0.01 0.01 0.01 0.03 0.02 0.01 0.01 0.02 0.02 0.03 0.08 0.06 0.05 0.05 0.07 0.04 0.02 0.11 0.12 0.07 0.19 0.22 0.26 0.25 0.34 0.38 0.33 0.28 0.23 0.37 0.25 0.24 0.26 0.39 0.25 0.36 0.34 0.48 0.53 0.21 0.34 0.09 0.05 0.14
0.00 0.00 0.12 0.00 0.00 0.02 0.16 0.03 0.05 0.29 0.16 0.52 0.17 0.57 0.45 0.35 0.12 0.15 0.17 0.14 0.17 0.03 0.07 0.08 0.04 0.03 0.02 0.02 0.01 0.01 0.05 0.05 0.04 0.02 0.02 0.01 0.01 0.02 0.01 0.02 0.03 0.05 0.00 0.02 0.01 0.00 0.00 0.00 0.00 0.00 0.00 0.01 0.01 0.01 0.01 0.01 0.06 0.02 0.01 0.04 0.02 0.03 0.06 0.04 0.04 0.06 0.05 0.05 0.18 0.27 0.12 0.14 0.14 0.15 0.32 0.44 0.40 0.19 0.16 0.35 0.22 0.18 0.22 0.18 0.25 0.33 0.42 0.28 0.15 0.27 0.51 0.33 0.15 0.16 0.13 0.03 0.01
0.02 0.00 0.03 0.01 0.00 0.01 0.26 0.03 0.05 0.09 0.23 0.37 0.29 0.46 0.66 0.47 0.24 0.31 0.18 0.57 0.20 0.19 0.10 0.05 0.08 0.08 0.03 0.03 0.01 0.04 0.04 0.04 0.05 0.02 0.02 0.01 0.00 0.01 0.01 0.01 0.01 0.00 0.00 0.00 0.00 0.00 0.00 0.00 0.00 0.00 0.00 0.00 0.00 0.00 0.00 0.01 0.02 0.02 0.01 0.03 0.08 0.04 0.04 0.04 0.03 0.08 0.04 0.11 0.15 0.13 0.09 0.13 0.17 0.18 0.16 0.15 0.13 0.19 0.15 0.30 0.26 0.19 0.18 0.18 0.18 0.30 0.33 0.29 0.16 0.17 0.23 0.18 0.08 0.13 0.09 0.03 0.04
0.02 0.04 0.09 0.01 0.04 0.01 0.20 0.02 0.02 0.03 0.15 0.40 0.43 0.49 0.35 0.55 0.40 0.40 0.14 0.35 0.34 0.64 0.14 0.26 0.22 0.37 0.11 0.08 0.04 0.03 0.06 0.07 0.01 0.07 0.02 0.00 0.01 0.01 0.01 0.00 0.00 0.01 0.01 0.00 0.01 0.00 0.00 0.00 0.00 0.00 0.00 0.01 0.00 0.01 0.01 0.01 0.02 0.06 0.03 0.03 0.02 0.03 0.05 0.11 0.05 0.02 0.14 0.30 0.13 0.10 0.08 0.15 0.08 0.09 0.10 0.09 0.09 0.11 0.15 0.26 0.27 0.21 0.21 0.25 0.26 0.45 0.26 0.36 0.25 0.19 0.17 0.19 0.17 0.13 0.11 0.10 0.08
0.00 0.02 0.03 0.00 0.01 0.01 0.04 0.06 0.01 0.04 0.11 0.09 0.50 0.42 0.58 0.79 0.27 0.54 0.24 0.26 0.37 0.41 0.65 0.40 0.21 0.33 0.36 0.31 0.12 0.06 0.07 0.05 0.02 0.03 0.04 0.01 0.01 0.00 0.00 0.00 0.01 0.01 0.00 0.00 0.00 0.00 0.00 0.00 0.00 0.01 0.01 0.01 0.01 0.01 0.02 0.05 0.07 0.05 0.02 0.02 0.08 0.05 0.05 0.08 0.04 0.07 0.14 0.19 0.13 0.06 0.09 0.08 0.10 0.14 0.12 0.08 0.05 0.11 0.24 0.27 0.27 0.15 0.17 0.24 0.19 0.15 0.43 0.27 0.22 0.16 0.17 0.15 0.16 0.08 0.04 0.03 0.02
0.01 0.02 0.05 0.00 0.00 0.00 0.01 0.04 0.02 0.02 0.30 0.58 0.45 0.38 0.51 0.66 0.17 0.43 0.53 0.39 0.46 0.32 0.27 0.70 0.49 0.21 0.17 0.22 0.43 0.25 0.07 0.02 0.03 0.03 0.02 0.05 0.04 0.00 0.00 0.00 0.00 0.00 0.00 0.00 0.00 0.00 0.00 0.01 0.01 0.01 0.02 0.00 0.00 0.02 0.05 0.02 0.03 0.06 0.02 0.03 0.02 0.04 0.09 0.09 0.04 0.05 0.07 0.08 0.06 0.07 0.09 0.12 0.11 0.09 0.13 0.18 0.17 0.22 0.25 0.17 0.10 0.22 0.13 0.26 0.26 0.21 0.32 0.26 0.14 0.18 0.11 0.30 0.20 0.09 0.03 0.02 0.01
0.00 0.02 0.07 0.06 0.01 0.00 0.00 0.04 0.04 0.06 0.00 0.28 0.33 0.29 0.52 0.27 0.50 0.47 0.24 0.31 0.59 0.90 0.55 0.98 0.29 0.40 0.26 0.15 0.17 0.38 0.05 0.05 0.02 0.05 0.06 0.01 0.00 0.01 0.01 0.00 0.00 0.00 0.00 0.00 0.00 0.00 0.00 0.00 0.00 0.00 0.00 0.01 0.02 0.02 0.01 0.03 0.03 0.02 0.01 0.01 0.02 0.01 0.01 0.01 0.03 0.06 0.03 0.02 0.02 0.03 0.07 0.07 0.04 0.07 0.04 0.08 0.13 0.20 0.15 0.15 0.11 0.17 0.14 0.21 0.12 0.26 0.19 0.22 0.31 0.19 0.24 0.13 0.07 0.08 0.02 0.01 0.02
0.01 0.00 0.00 0.07 0.08 0.00 0.01 0.00 0.01 0.04 0.08 0.05 0.07 0.17 0.47 0.24 0.16 0.12 0.08 0.13 0.23 0.51 0.46 0.36 0.73 0.41 0.27 0.21 0.10 0.09 0.06 0.04 0.06 0.02 0.03 0.02 0.04 0.00 0.00 0.00 0.00 0.00 0.00 0.00 0.00 0.00 0.00 0.00 0.00 0.00 0.00 0.02 0.01 0.01 0.03 0.01 0.00 0.00 0.00 0.01 0.02 0.01 0.04 0.01 0.01 0.02 0.06 0.03 0.03 0.02 0.08 0.08 0.06 0.07 0.11 0.15 0.11 0.11 0.07 0.16 0.18 0.17 0.15 0.17 0.20 0.19 0.15 0.22 0.23 0.23 0.24 0.19 0.08 0.06 0.05 0.03 0.05
0.00 0.00 0.01 0.02 0.00 0.00 0.00 0.00 0.02 0.00 0.01 0.02 0.11 0.03 0.09 0.15 0.14 0.08 0.04 0.03 0.09 0.18 0.30 0.21 0.45 0.65 0.35 0.28 0.10 0.06 0.10 0.11 0.08 0.05 0.02 0.01 0.00 0.00 0.00 0.00 0.00 0.00 0.00 0.00 0.00 0.00 0.00 0.00 0.00 0.00 0.00 0.00 0.00 0.00 0.00 0.00 0.02 0.01 0.02 0.02 0.03 0.01 0.01 0.02 0.02 0.04 0.02 0.03 0.03 0.02 0.08 0.07 0.10 0.07 0.09 0.15 0.05 0.04 0.05 0.07 0.09 0.09 0.13 0.14 0.16 0.15 0.22 0.22 0.27 0.23 0.25 0.12 0.20 0.16 0.09 0.05 0.03
0.00 0.00 0.01 0.00 0.00 0.00 0.00 0.00 0.00 0.02 0.07 0.06 0.02 0.13 0.13 0.16 0.09 0.09 0.04 0.04 0.04 0.12 0.08 0.13 0.53 0.67 0.30 0.46 0.27 0.11 0.06 0.03 0.01 0.03 0.03 0.02 0.02 0.01 0.00 0.00 0.00 0.00 0.00 0.00 0.00 0.00 0.00 0.00 0.00 0.00 0.00 0.00 0.00 0.00 0.00 0.00 0.00 0.00 0.03 0.03 0.03 0.02 0.01 0.01 0.01 0.00 0.01 0.02 0.06 0.01 0.06 0.14 0.13 0.09 0.02 0.03 0.07 0.04 0.06 0.06 0.08 0.09 0.14 0.10 0.11 0.20 0.27 0.20 0.19 0.17 0.22 0.19 0.17 0.12 0.07 0.11 0.04
0.00 0.01 0.00 0.00 0.00 0.00 0.00 0.00 0.00 0.01 0.04 0.04 0.02 0.03 0.08 0.05 0.24 0.13 0.08 0.04 0.04 0.08 0.13 0.07 0.18 0.33 0.34 0.24 0.16 0.12 0.11 0.09 0.02 0.01 0.02 0.09 0.04 0.02 0.04 0.00 0.00 0.00 0.00 0.00 0.00 0.00 0.00 0.00 0.00 0.00 0.00 0.00 0.00 0.00 0.00 0.00 0.00 0.01 0.00 0.01 0.02 0.01 0.01 0.00 0.00 0.00 0.00 0.00 0.02 0.01 0.01 0.01 0.01 0.02 0.01 0.02 0.01 0.03 0.03 0.09 0.11 0.04 0.10 0.14 0.11 0.10 0.13 0.18 0.25 0.19 0.15 0.14 0.20 0.21 0.15 0.10 0.04
0.01 0.00 0.00 0.00 0.00 0.00 0.00 0.00 0.00 0.01 0.00 0.00 0.14 0.01 0.16 0.15 0.08 0.09 0.04 0.05 0.06 0.07 0.14 0.26 0.47 0.43 0.19 0.39 0.15 0.12 0.14 0.09 0.03 0.02 0.02 0.01 0.03 0.01 0.00 0.00 0.00 0.00 0.00 0.00 0.00 0.00 0.00 0.00 0.00 0.00 0.00 0.00 0.00 0.00 0.00 0.00 0.00 0.00 0.00 0.00 0.00 0.00 0.00 0.00 0.00 0.00 0.00 0.01 0.03 0.03 0.01 0.01 0.01 0.01 0.02 0.01 0.02 0.04 0.05 0.03 0.07 0.06 0.05 0.08 0.07 0.15 0.11 0.16 0.22 0.13 0.15 0.16 0.23 0.10 0.11 0.07 0.04
0.00 0.00 0.00 0.00 0.00 0.00 0.00 0.00 0.00 0.00 0.00 0.01 0.02 0.03 0.07 0.09 0.19 0.21 0.28 0.29 0.39 0.23 0.09 0.09 0.35 0.53 0.42 0.24 0.21 0.12 0.15 0.21 0.08 0.03 0.01 0.01 0.00 0.01 0.01 0.00 0.00 0.01 0.00 0.00 0.00 0.00 0.00 0.00 0.00 0.00 0.00 0.00 0.00 0.00 0.00 0.00 0.00 0.00 0.00 0.00 0.00 0.00 0.00 0.00 0.00 0.00 0.00 0.00 0.02 0.01 0.01 0.00 0.01 0.02 0.02 0.02 0.03 0.01 0.03 0.04 0.04 0.04 0.06 0.08 0.06 0.12 0.05 0.09 0.10 0.12 0.12 0.14 0.11 0.10 0.08 0.06 0.06
0.00 0.00 0.00 0.00 0.00 0.00 0.00 0.00 0.00 0.01 0.00 0.02 0.00 0.00 0.11 0.06 0.22 0.23 0.18 0.22 0.34 0.19 0.16 0.09 0.13 0.37 0.30 0.23 0.12 0.17 0.16 0.22 0.20 0.04 0.05 0.02 0.02 0.01 0.02 0.02 0.01 0.00 0.00 0.00 0.00 0.00 0.00 0.00 0.00 0.00 0.00 0.00 0.00 0.00 0.00 0.00 0.00 0.00 0.00 0.00 0.00 0.00 0.00 0.00 0.00 0.00 0.00 0.00 0.00 0.01 0.01 0.01 0.01 0.01 0.03 0.02 0.01 0.01 0.02 0.07 0.05 0.05 0.05 0.07 0.03 0.06 0.07 0.06 0.05 0.05 0.07 0.05 0.06 0.11 0.08 0.03 0.05
0.00 0.00 0.00 0.00 0.00 0.00 0.00 0.00 0.00 0.01 0.00 0.00 0.00 0.01 0.02 0.14 0.24 0.36 0.21 0.44 0.15 0.37 0.07 0.04 0.15 0.19 0.10 0.13 0.18 0.24 0.17 0.12 0.29 0.32 0.13 0.08 0.06 0.02 0.00 0.01 0.00 0.01 0.00 0.00 0.00 0.00 0.00 0.00 0.00 0.00 0.00 0.00 0.00 0.00 0.00 0.00 0.00 0.00 0.00 0.00 0.00 0.00 0.00 0.00 0.00 0.00 0.00 0.00 0.00 0.01 0.01 0.02 0.00 0.00 0.00 0.01 0.01 0.00 0.02 0.01 0.02 0.04 0.03 0.02 0.02 0.08 0.03 0.03 0.03 0.02 0.03 0.02 0.03 0.04 0.08 0.05 0.07
0.00 0.00 0.00 0.00 0.00 0.00 0.00 0.00 0.00 0.00 0.00 0.00 0.01 0.00 0.03 0.11 0.10 0.20 0.02 0.04 0.20 0.07 0.06 0.04 0.17 0.02 0.05 0.04 0.11 0.18 0.18 0.17 0.12 0.13 0.38 0.11 0.10 0.17 0.04 0.02 0.01 0.01 0.00 0.00 0.00 0.00 0.00 0.00 0.00 0.00 0.00 0.00 0.00 0.00 0.00 0.00 0.00 0.00 0.00 0.00 0.00 0.00 0.00 0.00 0.00 0.00 0.00 0.00 0.00 0.00 0.01 0.01 0.01 0.01 0.00 0.00 0.00 0.00 0.00 0.00 0.01 0.03 0.05 0.04 0.02 0.02 0.02 0.03 0.02 0.05 0.02 0.02 0.04 0.03 0.03 0.05 0.11
0.00 0.00 0.00 0.00 0.00 0.00 0.00 0.00 0.00 0.00 0.02 0.01 0.01 0.01 0.01 0.04 0.03 0.01 0.02 0.02 0.19 0.26 0.21 0.03 0.02 0.00 0.01 0.10 0.07 0.36 0.28 0.20 0.14 0.08 0.45 0.19 0.08 0.08 0.07 0.03 0.03 0.00 0.00 0.00 0.00 0.00 0.00 0.00 0.00 0.00 0.00 0.00 0.00 0.00 0.00 0.00 0.00 0.00 0.00 0.00 0.00 0.00 0.00 0.00 0.00 0.00 0.00 0.01 0.00 0.00 0.00 0.00 0.00 0.01 0.00 0.00 0.00 0.00 0.00 0.00 0.00 0.01 0.01 0.01 0.01 0.02 0.03 0.01 0.07 0.02 0.03 0.01 0.01 0.02 0.03 0.05 0.04
0.00 0.00 0.00 0.00 0.00 0.00 0.00 0.00 0.00 0.00 0.00 0.00 0.00 0.01 0.03 0.04 0.04 0.00 0.04 0.02 0.07 0.07 0.08 0.02 0.01 0.01 0.03 0.04 0.04 0.12 0.17 0.38 0.16 0.09 0.24 0.08 0.13 0.06 0.08 0.05 0.02 0.01 0.00 0.00 0.00 0.00 0.00 0.01 0.00 0.00 0.00 0.00 0.00 0.00 0.00 0.00 0.00 0.00 0.00 0.00 0.00 0.00 0.00 0.00 0.00 0.00 0.00 0.00 0.00 0.00 0.00 0.01 0.00 0.00 0.00 0.00 0.00 0.00 0.01 0.00 0.00 0.00 0.01 0.01 0.02 0.03 0.03 0.01 0.02 0.03 0.02 0.02 0.02 0.02 0.02 0.02 0.02
0.00 0.00 0.00 0.00 0.00 0.00 0.00 0.00 0.00 0.00 0.01 0.00 0.00 0.00 0.06 0.02 0.11 0.01 0.01 0.00 0.00 0.00 0.02 0.01 0.02 0.03 0.20 0.13 0.19 0.32 0.24 0.29 0.15 0.08 0.08 0.07 0.03 0.06 0.05 0.05 0.02 0.02 0.02 0.00 0.00 0.00 0.00 0.00 0.00 0.00 0.00 0.00 0.00 0.00 0.00 0.00 0.00 0.00 0.00 0.00 0.00 0.00 0.00 0.00 0.00 0.00 0.00 0.00 0.00 0.00 0.00 0.00 0.00 0.00 0.00 0.00 0.00 0.00 0.00 0.00 0.00 0.00 0.00 0.01 0.01 0.02 0.02 0.02 0.02 0.02 0.04 0.01 0.04 0.02 0.01 0.02 0.06
0.00 0.00 0.00 0.00 0.00 0.00 0.00 0.00 0.00 0.00 0.00 0.00 0.01 0.02 0.08 0.10 0.01 0.04 0.00 0.00 0.00 0.01 0.00 0.00 0.01 0.01 0.01 0.02 0.06 0.04 0.07 0.18 0.23 0.30 0.25 0.18 0.09 0.09 0.05 0.07 0.04 0.04 0.01 0.06 0.00 0.00 0.00 0.00 0.01 0.00 0.00 0.00 0.00 0.00 0.00 0.00 0.00 0.00 0.00 0.00 0.00 0.00 0.00 0.00 0.00 0.00 0.00 0.00 0.00 0.00 0.00 0.00 0.00 0.00 0.00 0.00 0.00 0.00 0.00 0.00 0.00 0.00 0.00 0.00 0.01 0.01 0.01 0.01 0.02 0.02 0.02 0.03 0.02 0.05 0.02 0.01 0.03
0.00 0.00 0.00 0.00 0.00 0.00 0.00 0.00 0.00 0.00 0.00 0.00 0.02 0.01 0.02 0.00 0.02 0.00 0.00 0.01 0.00 0.01 0.01 0.00 0.01 0.00 0.00 0.01 0.02 0.04 0.03 0.01 0.02 0.09 0.04 0.07 0.12 0.13 0.08 0.06 0.05 0.04 0.03 0.03 0.01 0.02 0.01 0.00 0.02 0.07 0.07 0.01 0.00 0.00 0.00 0.00 0.00 0.00 0.00 0.00 0.00 0.00 0.00 0.00 0.00 0.00 0.00 0.00 0.00 0.00 0.00 0.00 0.00 0.00 0.00 0.00 0.00 0.00 0.00 0.00 0.00 0.01 0.00 0.00 0.00 0.00 0.01 0.01 0.03 0.02 0.03 0.02 0.02 0.01 0.02 0.02 0.02
0.00 0.00 0.00 0.00 0.00 0.00 0.00 0.00 0.00 0.00 0.00 0.00 0.01 0.02 0.02 0.01 0.15 0.06 0.05 0.03 0.01 0.02 0.00 0.00 0.01 0.00 0.00 0.00 0.00 0.01 0.04 0.05 0.09 0.11 0.09 0.08 0.10 0.08 0.16 0.32 0.06 0.03 0.03 0.01 0.02 0.02 0.01 0.04 0.01 0.03 0.03 0.05 0.04 0.00 0.00 0.00 0.00 0.00 0.00 0.00 0.00 0.00 0.00 0.00 0.00 0.00 0.00 0.00 0.00 0.00 0.00 0.00 0.00 0.00 0.00 0.00 0.00 0.00 0.00 0.00 0.00 0.00 0.00 0.00 0.00 0.01 0.00 0.01 0.03 0.02 0.02 0.04 0.01 0.01 0.02 0.01 0.01
0.00 0.00 0.00 0.00 0.00 0.00 0.00 0.00 0.00 0.00 0.00 0.00 0.00 0.03 0.01 0.03 0.08 0.03 0.04 0.05 0.00 0.04 0.03 0.00 0.00 0.00 0.00 0.00 0.00 0.00 0.03 0.01 0.04 0.18 0.15 0.16 0.14 0.28 0.20 0.24 0.15 0.04 0.03 0.03 0.03 0.01 0.05 0.03 0.04 0.02 0.01 0.09 0.05 0.07 0.01 0.00 0.00 0.00 0.00 0.00 0.00 0.00 0.00 0.00 0.00 0.00 0.00 0.00 0.00 0.00 0.00 0.00 0.00 0.00 0.00 0.00 0.00 0.00 0.00 0.00 0.00 0.00 0.00 0.00 0.00 0.00 0.00 0.01 0.01 0.01 0.01 0.07 0.05 0.03 0.03 0.05 0.04
0.00 0.00 0.00 0.00 0.00 0.00 0.00 0.00 0.03 0.00 0.00 0.00 0.16 0.01 0.10 0.09 0.05 0.08 0.07 0.01 0.01 0.01 0.02 0.00 0.00 0.00 0.00 0.00 0.00 0.00 0.01 0.01 0.02 0.03 0.06 0.11 0.19 0.15 0.47 0.11 0.17 0.31 0.08 0.05 0.09 0.17 0.25 0.24 0.20 0.25 0.28 0.11 0.05 0.09 0.01 0.00 0.00 0.00 0.00 0.00 0.00 0.00 0.00 0.00 0.00 0.00 0.00 0.00 0.00 0.00 0.00 0.00 0.00 0.00 0.00 0.00 0.00 0.00 0.00 0.00 0.00 0.00 0.00 0.00 0.00 0.01 0.00 0.00 0.01 0.00 0.03 0.02 0.02 0.01 0.03 0.02 0.04
0.00 0.00 0.00 0.00 0.00 0.00 0.00 0.00 0.00 0.01 0.01 0.00 0.03 0.05 0.12 0.02 0.01 0.01 0.00 0.00 0.02 0.00 0.00 0.00 0.00 0.00 0.00 0.00 0.00 0.00 0.00 0.01 0.02 0.01 0.04 0.07 0.07 0.10 0.08 0.26 0.11 0.54 0.51 0.16 0.17 0.43 0.32 0.22 0.17 0.16 0.08 0.12 0.14 0.06 0.04 0.01 0.00 0.00 0.00 0.00 0.00 0.00 0.00 0.00 0.00 0.00 0.00 0.00 0.00 0.00 0.00 0.00 0.00 0.00 0.00 0.00 0.00 0.00 0.00 0.00 0.00 0.02 0.02 0.01 0.01 0.02 0.00 0.00 0.01 0.01 0.01 0.01 0.01 0.02 0.02 0.01 0.02
0.00 0.00 0.00 0.00 0.00 0.00 0.00 0.00 0.00 0.00 0.00 0.01 0.02 0.05 0.02 0.02 0.06 0.01 0.00 0.00 0.00 0.00 0.00 0.00 0.00 0.00 0.00 0.00 0.00 0.00 0.00 0.00 0.00 0.00 0.05 0.04 0.06 0.08 0.06 0.08 0.22 0.29 0.23 0.29 0.23 0.17 0.27 0.26 0.17 0.12 0.12 0.14 0.31 0.26 0.03 0.01 0.01 0.00 0.00 0.00 0.00 0.00 0.00 0.00 0.00 0.00 0.00 0.00 0.00 0.00 0.00 0.00 0.00 0.00 0.00 0.00 0.02 0.03 0.04 0.01 0.00 0.00 0.00 0.01 0.02 0.02 0.03 0.01 0.01 0.01 0.02 0.01 0.02 0.02 0.02 0.01 0.01